Time,TemperatureF,DewpointF,PressureIn,WindDirection,WindDirectionDegrees,WindSpeedMPH,WindSpeedGustMPH,Humidity,HourlyPrecipIn,Conditions,Clouds,dailyrainin,SoftwareType,DateUTC
2013-05-10 00:04:00,42.7,42.7,29.03,SSE,149,2.5,5.6,100,0.00,,,0.00,WSDL version 420,2013-05-10 06:04:00,
2013-05-10 00:09:00,42.7,42.7,29.03,SSE,158,0.5,4.0,100,0.00,,,0.00,WSDL version 420,2013-05-10 06:09:00,
2013-05-10 00:14:00,42.4,42.3,29.03,SSE,158,0.0,3.4,100,0.00,,,0.00,WSDL version 420,2013-05-10 06:14:00,
2013-05-10 00:19:00,42.2,42.2,29.03,South,172,2.6,3.4,100,0.00,,,0.00,WSDL version 420,2013-05-10 06:19:00,
2013-05-10 00:24:00,42.0,42.0,29.03,South,173,0.4,3.4,100,0.00,,,0.00,WSDL version 420,2013-05-10 06:24:00,
2013-05-10 00:29:00,41.8,41.8,29.03,South,190,0.0,2.9,100,-99.99,,,-99.99,WSDL version 420,2013-05-10 06:29:00,
2013-05-10 00:34:00,41.6,41.6,29.03,SE,139,0.0,2.9,100,0.00,,,0.00,WSDL version 420,2013-05-10 06:34:00,
2013-05-10 00:39:00,41.2,41.2,29.03,SW,229,1.8,4.0,100,0.00,,,0.00,WSDL version 420,2013-05-10 06:39:00,
2013-05-10 00:44:00,41.2,41.2,29.03,NW,305,4.0,4.9,100,0.00,,,0.00,WSDL version 420,2013-05-10 06:44:00,
2013-05-10 00:50:00,41.3,41.3,29.03,WNW,290,3.5,5.8,100,0.00,,,0.00,WSDL version 420,2013-05-10 06:50:00,
2013-05-10 00:55:00,41.2,41.2,29.03,West,281,3.5,5.8,100,0.00,,,0.00,WSDL version 420,2013-05-10 06:55:00,
2013-05-10 01:00:00,41.3,41.3,29.03,West,281,4.3,6.3,100,0.00,,,0.00,WSDL version 420,2013-05-10 07:00:00,
2013-05-10 01:05:00,41.5,41.5,29.03,SW,215,2.7,6.3,100,-99.99,,,-99.99,WSDL version 420,2013-05-10 07:05:00,
2013-05-10 01:10:00,42.2,42.2,29.03,SW,233,3.8,5.6,100,0.00,,,0.00,WSDL version 420,2013-05-10 07:10:00,
2013-05-10 01:15:00,42.3,42.3,29.03,West,281,3.4,5.6,100,0.00,,,0.00,WSDL version 420,2013-05-10 07:15:00,
2013-05-10 01:20:00,42.1,42.1,29.03,WSW,248,6.1,8.5,100,0.00,,,0.00,WSDL version 420,2013-05-10 07:20:00,
2013-05-10 01:25:00,43.0,43.0,29.03,West,276,5.6,8.5,100,-99.99,,,-99.99,WSDL version 420,2013-05-10 07:25:00,
2013-05-10 01:30:00,43.3,43.3,29.03,West,264,3.8,8.1,100,0.00,,,0.00,WSDL version 420,2013-05-10 07:30:00,
2013-05-10 01:35:00,42.9,42.9,29.03,West,270,3.0,7.8,100,0.00,,,0.00,WSDL version 420,2013-05-10 07:35:00,
2013-05-10 01:40:00,42.4,42.4,29.03,West,259,2.1,4.3,100,0.00,,,0.00,WSDL version 420,2013-05-10 07:40:00,
2013-05-10 01:45:00,41.9,41.9,29.03,North,353,0.0,3.6,100,-99.99,,,-99.99,WSDL version 420,2013-05-10 07:45:00,
2013-05-10 01:50:00,41.4,41.4,29.03,ESE,115,1.0,3.1,100,0.00,,,0.00,WSDL version 420,2013-05-10 07:50:00,
2013-05-10 01:55:00,-999.0,-99.9,29.03,SSE,164,2.9,4.9,-999,0.00,,,0.00,WSDL version 420,2013-05-10 07:55:00,
2013-05-10 02:00:00,42.0,42.0,29.03,SSE,158,4.3,5.8,100,0.00,,,0.00,WSDL version 420,2013-05-10 08:00:00,
2013-05-10 02:05:00,42.3,42.3,29.03,South,191,3.1,6.0,100,0.00,,,0.00,WSDL version 420,2013-05-10 08:05:00,
2013-05-10 02:10:00,42.5,42.5,29.03,SSE,162,3.5,6.0,100,0.00,,,0.00,WSDL version 420,2013-05-10 08:10:00,
2013-05-10 02:15:00,42.6,42.6,29.03,South,170,3.1,6.0,100,0.00,,,0.00,WSDL version 420,2013-05-10 08:15:00,
2013-05-10 02:20:00,42.7,42.7,29.00,South,174,4.0,7.6,100,-99.99,,,-99.99,WSDL version 420,2013-05-10 08:20:00,
2013-05-10 02:25:00,42.7,42.7,29.00,South,184,4.1,7.6,100,-99.99,,,-99.99,WSDL version 420,2013-05-10 08:25:00,
2013-05-10 02:30:00,42.7,42.7,29.00,South,174,3.9,5.8,100,0.00,,,0.00,WSDL version 420,2013-05-10 08:30:00,
2013-05-10 02:35:00,42.8,42.8,29.03,SSW,199,4.8,6.3,100,0.00,,,0.00,WSDL version 420,2013-05-10 08:35:00,
2013-05-10 02:40:00,43.0,43.0,29.03,South,186,4.1,6.3,100,0.00,,,0.00,WSDL version 420,2013-05-10 08:40:00,
2013-05-10 02:45:00,43.0,43.0,29.03,SSW,196,4.5,6.5,100,0.00,,,0.00,WSDL version 420,2013-05-10 08:45:00,
2013-05-10 02:50:00,43.2,43.2,29.00,SSW,203,5.1,6.5,100,0.00,,,0.00,WSDL version 420,2013-05-10 08:50:00,
2013-05-10 02:55:00,43.3,43.3,29.00,SSW,198,5.2,6.3,100,-99.99,,,-99.99,WSDL version 420,2013-05-10 08:55:00,
2013-05-10 03:00:00,43.5,43.5,29.00,SSW,199,5.4,6.5,100,0.00,,,0.00,WSDL version 420,2013-05-10 09:00:00,
2013-05-10 03:05:00,43.6,43.6,29.00,SSW,203,5.0,6.5,100,0.00,,,0.00,WSDL version 420,2013-05-10 09:05:00,
2013-05-10 03:10:00,43.5,43.5,29.00,SSW,194,4.0,6.3,100,0.00,,,0.00,WSDL version 420,2013-05-10 09:10:00,
2013-05-10 03:15:00,43.5,43.5,29.00,SSW,203,4.4,6.0,100,-99.99,,,-99.99,WSDL version 420,2013-05-10 09:15:00,
2013-05-10 03:20:00,43.4,43.4,29.00,SW,214,3.9,6.0,100,0.00,,,0.00,WSDL version 420,2013-05-10 09:20:00,
2013-05-10 03:25:00,43.1,43.1,29.00,SSW,203,3.8,5.6,100,0.00,,,0.00,WSDL version 420,2013-05-10 09:25:00,
2013-05-10 03:30:00,42.3,42.3,29.00,SSW,203,3.3,4.3,100,0.00,,,0.00,WSDL version 420,2013-05-10 09:30:00,
2013-05-10 03:35:00,41.8,41.8,29.00,SW,215,2.8,4.3,100,0.00,,,0.00,WSDL version 420,2013-05-10 09:35:00,
2013-05-10 03:40:00,41.4,41.4,29.00,West,267,1.4,3.4,100,0.00,,,0.00,WSDL version 420,2013-05-10 09:40:00,
2013-05-10 03:45:00,40.8,40.8,29.00,WSW,240,1.9,3.6,100,0.00,,,0.00,WSDL version 420,2013-05-10 09:45:00,
2013-05-10 03:50:00,40.5,40.5,29.00,WSW,256,3.0,4.0,100,0.00,,,0.00,WSDL version 420,2013-05-10 09:50:00,
2013-05-10 03:55:00,-999.0,-99.9,29.00,SW,235,1.7,4.0,-999,-99.99,,,-99.99,WSDL version 420,2013-05-10 09:55:00,
2013-05-10 04:00:00,40.3,40.3,29.00,West,273,3.8,5.4,100,0.00,,,0.00,WSDL version 420,2013-05-10 10:00:00,
2013-05-10 04:05:00,40.5,40.5,29.00,West,264,3.0,5.4,100,-99.99,,,-99.99,WSDL version 420,2013-05-10 10:05:00,
2013-05-10 04:10:00,40.5,40.5,29.00,West,266,3.8,5.6,100,0.00,,,0.00,WSDL version 420,2013-05-10 10:10:00,
2013-05-10 04:15:00,40.4,40.4,29.00,WNW,285,3.6,5.6,100,0.00,,,0.00,WSDL version 420,2013-05-10 10:15:00,
2013-05-10 04:20:00,40.3,40.3,29.00,West,260,3.1,5.6,100,0.00,,,0.00,WSDL version 420,2013-05-10 10:20:00,
2013-05-10 04:25:00,40.2,40.2,29.00,West,281,5.1,7.2,100,0.00,,,0.00,WSDL version 420,2013-05-10 10:25:00,
2013-05-10 04:30:00,39.8,39.8,29.00,WNW,289,5.1,7.2,100,0.00,,,0.00,WSDL version 420,2013-05-10 10:30:00,
2013-05-10 04:35:00,39.4,39.4,29.00,West,280,6.1,6.5,100,0.00,,,0.00,WSDL version 420,2013-05-10 10:35:00,
2013-05-10 04:40:00,39.3,39.3,29.00,WNW,289,5.9,6.5,100,0.00,,,0.00,WSDL version 420,2013-05-10 10:40:00,
2013-05-10 04:45:00,39.0,39.0,29.00,West,278,5.6,7.2,100,0.00,,,0.00,WSDL version 420,2013-05-10 10:45:00,
2013-05-10 04:50:00,39.2,39.2,29.00,WNW,293,4.9,7.2,100,0.00,,,0.00,WSDL version 420,2013-05-10 10:50:00,
2013-05-10 04:55:00,39.0,39.0,29.00,WNW,289,4.6,6.5,100,0.00,,,0.00,WSDL version 420,2013-05-10 10:55:00,
2013-05-10 05:00:00,38.8,38.8,29.00,WNW,289,6.2,6.5,100,0.00,,,0.00,WSDL version 420,2013-05-10 11:00:00,
2013-05-10 05:05:00,38.8,38.8,29.00,WNW,293,6.1,7.6,100,0.00,,,0.00,WSDL version 420,2013-05-10 11:05:00,
2013-05-10 05:10:00,38.8,38.8,29.00,West,276,6.6,8.7,100,0.00,,,0.00,WSDL version 420,2013-05-10 11:10:00,
2013-05-10 05:15:00,38.8,38.8,29.00,WNW,293,6.6,8.7,100,0.00,,,0.00,WSDL version 420,2013-05-10 11:15:00,
2013-05-10 05:20:00,39.0,39.0,29.00,WNW,287,5.8,7.8,100,-99.99,,,-99.99,WSDL version 420,2013-05-10 11:20:00,
2013-05-10 05:25:00,39.0,39.0,29.00,West,273,4.7,7.6,100,0.00,,,0.00,WSDL version 420,2013-05-10 11:25:00,
2013-05-10 05:30:00,39.2,39.2,29.00,West,273,4.6,7.6,100,0.00,,,0.00,WSDL version 420,2013-05-10 11:30:00,
2013-05-10 05:35:00,39.1,39.1,29.00,WNW,284,4.9,7.6,100,-99.99,,,-99.99,WSDL version 420,2013-05-10 11:35:00,
2013-05-10 05:40:00,39.1,39.1,29.00,WNW,286,4.7,7.6,100,0.00,,,0.00,WSDL version 420,2013-05-10 11:40:00,
2013-05-10 05:45:00,39.2,39.2,29.00,WNW,286,5.1,7.6,100,0.00,,,0.00,WSDL version 420,2013-05-10 11:45:00,
2013-05-10 05:50:00,39.2,39.2,29.00,West,273,3.5,7.6,100,0.00,,,0.00,WSDL version 420,2013-05-10 11:50:00,
2013-05-10 05:56:00,39.2,39.2,29.00,WNW,302,2.0,6.0,100,0.00,,,0.00,WSDL version 420,2013-05-10 11:56:00,
2013-05-10 06:01:00,39.2,39.2,29.00,WSW,248,2.5,4.0,100,-99.99,,,-99.99,WSDL version 420,2013-05-10 12:01:00,
2013-05-10 06:06:00,39.7,39.7,29.03,WSW,243,3.3,5.4,100,0.00,,,0.00,WSDL version 420,2013-05-10 12:06:00,
2013-05-10 06:11:00,40.2,40.2,29.03,SW,221,1.0,5.4,100,0.00,,,0.00,WSDL version 420,2013-05-10 12:11:00,
2013-05-10 06:16:00,40.3,40.3,29.00,SSW,210,1.6,4.0,100,0.00,,,0.00,WSDL version 420,2013-05-10 12:16:00,
2013-05-10 06:21:00,40.7,40.7,29.00,WSW,239,1.2,3.8,100,0.00,,,0.00,WSDL version 420,2013-05-10 12:21:00,
2013-05-10 06:26:00,41.3,41.3,29.00,West,260,1.5,3.8,100,-99.99,,,-99.99,WSDL version 420,2013-05-10 12:26:00,
2013-05-10 06:31:00,46.4,46.4,29.00,WNW,293,2.5,3.4,100,-99.99,,,-99.99,WSDL version 420,2013-05-10 12:31:00,
2013-05-10 06:36:00,50.3,50.3,29.03,WNW,302,0.6,3.4,100,0.00,,,0.00,WSDL version 420,2013-05-10 12:36:00,
2013-05-10 06:41:00,53.2,53.2,29.03,WNW,290,2.8,4.7,100,0.00,,,0.00,WSDL version 420,2013-05-10 12:41:00,
2013-05-10 06:46:00,55.1,55.1,29.03,NNW,331,0.0,4.7,100,0.00,,,0.00,WSDL version 420,2013-05-10 12:46:00,
2013-05-10 06:51:00,53.4,53.4,29.03,NW,312,2.5,3.8,100,0.00,,,0.00,WSDL version 420,2013-05-10 12:51:00,
2013-05-10 06:56:00,51.3,51.3,29.03,West,274,3.1,3.8,100,0.00,,,0.00,WSDL version 420,2013-05-10 12:56:00,
2013-05-10 07:01:00,50.2,50.2,29.03,West,280,3.1,5.4,100,-99.99,,,-99.99,WSDL version 420,2013-05-10 13:01:00,
2013-05-10 07:06:00,50.7,50.7,29.03,WNW,289,4.4,6.5,100,-99.99,,,-99.99,WSDL version 420,2013-05-10 13:06:00,
2013-05-10 07:11:00,52.7,52.7,29.03,West,279,5.1,7.6,100,0.00,,,0.00,WSDL version 420,2013-05-10 13:11:00,
2013-05-10 07:16:00,56.9,56.9,29.03,West,278,4.8,7.6,100,0.00,,,0.00,WSDL version 420,2013-05-10 13:16:00,
2013-05-10 07:21:00,58.1,58.1,29.03,West,262,4.9,10.5,100,-99.99,,,-99.99,WSDL version 420,2013-05-10 13:21:00,
2013-05-10 07:26:00,59.2,59.2,29.03,West,263,6.0,10.5,100,0.00,,,0.00,WSDL version 420,2013-05-10 13:26:00,
2013-05-10 07:31:00,62.2,62.1,29.06,NW,304,5.5,10.3,100,0.00,,,0.00,WSDL version 420,2013-05-10 13:31:00,
2013-05-10 07:36:00,63.4,63.4,29.06,WNW,296,5.4,7.8,100,-99.99,,,-99.99,WSDL version 420,2013-05-10 13:36:00,
2013-05-10 07:41:00,64.9,64.9,29.06,West,278,6.9,8.5,100,-99.99,,,-99.99,WSDL version 420,2013-05-10 13:41:00,
2013-05-10 07:46:00,67.8,67.8,29.03,WNW,284,6.2,8.5,100,-99.99,,,-99.99,WSDL version 420,2013-05-10 13:46:00,
2013-05-10 07:51:00,69.6,69.6,29.03,West,281,5.6,8.1,100,-99.99,,,-99.99,WSDL version 420,2013-05-10 13:51:00,
2013-05-10 07:56:00,71.5,71.5,29.03,West,278,2.9,7.6,100,-99.99,,,-99.99,WSDL version 420,2013-05-10 13:56:00,
2013-05-10 08:01:00,73.5,72.1,29.03,West,280,3.4,6.5,87,-99.99,,,-99.99,WSDL version 420,2013-05-10 14:01:00,
2013-05-10 08:06:00,73.7,51.9,29.03,WNW,290,4.3,6.5,42,-99.99,,,-99.99,WSDL version 420,2013-05-10 14:06:00,
2013-05-10 08:11:00,75.3,46.7,29.03,NW,315,3.6,6.5,35,-99.99,,,-99.99,WSDL version 420,2013-05-10 14:11:00,
2013-05-10 08:16:00,77.0,43.7,29.03,WNW,296,5.1,7.2,26,-99.99,,,-99.99,WSDL version 420,2013-05-10 14:16:00,
2013-05-10 08:21:00,78.1,41.4,29.03,WNW,293,6.6,8.7,30,-99.99,,,-99.99,WSDL version 420,2013-05-10 14:21:00,
2013-05-10 08:26:00,78.3,37.5,29.03,West,262,6.9,10.3,23,-99.99,,,-99.99,WSDL version 420,2013-05-10 14:26:00,
2013-05-10 08:31:00,77.9,35.3,29.06,West,274,6.8,11.0,22,-99.99,,,-99.99,WSDL version 420,2013-05-10 14:31:00,
2013-05-10 08:36:00,78.6,36.2,29.06,WSW,255,6.5,12.3,21,-99.99,,,-99.99,WSDL version 420,2013-05-10 14:36:00,
2013-05-10 08:41:00,78.5,35.4,29.06,WNW,293,7.4,12.3,21,-99.99,,,-99.99,WSDL version 420,2013-05-10 14:41:00,
2013-05-10 08:46:00,79.7,36.4,29.06,WNW,284,5.9,11.0,21,-99.99,,,-99.99,WSDL version 420,2013-05-10 14:46:00,
2013-05-10 08:51:00,80.3,35.6,29.06,WNW,283,6.5,10.1,20,-99.99,,,-99.99,WSDL version 420,2013-05-10 14:51:00,
2013-05-10 08:56:00,80.9,35.8,29.06,West,280,6.2,10.1,19,-99.99,,,-99.99,WSDL version 420,2013-05-10 14:56:00,
2013-05-10 09:01:00,81.0,34.2,29.06,NW,323,8.2,11.0,17,0.00,,,0.00,WSDL version 420,2013-05-10 15:01:00,
2013-05-10 09:06:00,79.6,32.3,29.06,NW,312,5.4,11.0,20,-99.99,,,-99.99,WSDL version 420,2013-05-10 15:06:00,
2013-05-10 09:11:00,79.8,31.2,29.06,NNW,331,5.8,10.5,17,-99.99,,,-99.99,WSDL version 420,2013-05-10 15:11:00,
2013-05-10 09:16:00,80.9,32.1,29.06,NW,304,6.2,10.1,17,-99.99,,,-99.99,WSDL version 420,2013-05-10 15:16:00,
2013-05-10 09:21:00,80.4,29.6,29.06,NNW,338,5.2,10.1,15,-99.99,,,-99.99,WSDL version 420,2013-05-10 15:21:00,
2013-05-10 09:26:00,81.1,29.9,29.06,NNW,334,6.6,10.1,14,-99.99,,,-99.99,WSDL version 420,2013-05-10 15:26:00,
2013-05-10 09:31:00,80.7,27.7,29.06,NW,326,8.3,11.0,15,-99.99,,,-99.99,WSDL version 420,2013-05-10 15:31:00,
2013-05-10 09:36:00,77.8,26.5,29.06,NNW,345,6.9,15.2,15,-99.99,,,-99.99,WSDL version 420,2013-05-10 15:36:00,
2013-05-10 09:41:00,76.2,25.2,29.06,NNW,338,9.9,16.1,15,-99.99,,,-99.99,WSDL version 420,2013-05-10 15:41:00,
2013-05-10 09:46:00,76.1,25.4,29.06,NNW,328,7.9,16.1,15,-99.99,,,-99.99,WSDL version 420,2013-05-10 15:46:00,
2013-05-10 09:51:00,75.9,25.0,29.06,NNW,330,7.7,11.0,15,-99.99,,,-99.99,WSDL version 420,2013-05-10 15:51:00,
2013-05-10 09:56:00,75.9,25.3,29.06,NNW,338,6.2,12.1,15,-99.99,,,-99.99,WSDL version 420,2013-05-10 15:56:00,
2013-05-10 10:01:00,76.3,25.3,29.06,NNW,331,7.7,15.4,15,-99.99,,,-99.99,WSDL version 420,2013-05-10 16:01:00,
2013-05-10 10:06:00,78.2,26.8,29.06,NNW,335,7.9,15.4,15,-99.99,,,-99.99,WSDL version 420,2013-05-10 16:06:00,
2013-05-10 10:11:00,77.9,26.6,29.06,NNW,345,11.5,13.6,15,-99.99,,,-99.99,WSDL version 420,2013-05-10 16:11:00,
2013-05-10 10:16:00,77.4,26.2,29.06,NNW,334,8.1,13.6,15,-99.99,,,-99.99,WSDL version 420,2013-05-10 16:16:00,
2013-05-10 10:21:00,78.1,26.8,29.06,North,356,11.4,16.8,15,-99.99,,,-99.99,WSDL version 420,2013-05-10 16:21:00,
2013-05-10 10:26:00,76.1,25.1,29.06,North,350,11.7,18.1,15,-99.99,,,-99.99,WSDL version 420,2013-05-10 16:26:00,
2013-05-10 10:31:00,75.8,24.9,29.06,NNW,338,9.8,18.1,15,-99.99,,,-99.99,WSDL version 420,2013-05-10 16:31:00,
2013-05-10 10:36:00,75.6,24.8,29.06,North,353,9.4,17.4,15,-99.99,,,-99.99,WSDL version 420,2013-05-10 16:36:00,
2013-05-10 10:41:00,74.8,25.6,29.06,North,357,12.3,17.4,16,-99.99,,,-99.99,WSDL version 420,2013-05-10 16:41:00,
2013-05-10 10:46:00,75.2,25.2,29.06,NNW,344,11.6,17.2,16,-99.99,,,-99.99,WSDL version 420,2013-05-10 16:46:00,
2013-05-10 10:51:00,72.8,24.1,29.06,North,355,14.5,17.7,16,-99.99,,,-99.99,WSDL version 420,2013-05-10 16:51:00,
2013-05-10 10:56:00,73.2,24.4,29.06,NNW,341,11.5,21.3,16,-99.99,,,-99.99,WSDL version 420,2013-05-10 16:56:00,
2013-05-10 11:01:00,74.6,25.5,29.06,NNW,341,12.9,21.3,16,-99.99,,,-99.99,WSDL version 420,2013-05-10 17:01:00,
2013-05-10 11:06:00,76.1,25.1,29.06,NNW,344,9.6,19.5,15,-99.99,,,-99.99,WSDL version 420,2013-05-10 17:06:00,
2013-05-10 11:11:00,76.3,25.3,29.06,NNW,342,10.0,16.6,15,-99.99,,,-99.99,WSDL version 420,2013-05-10 17:11:00,
2013-05-10 11:16:00,76.5,25.4,29.06,NNW,343,12.4,16.6,15,-99.99,,,-99.99,WSDL version 420,2013-05-10 17:16:00,
2013-05-10 11:21:00,76.9,25.8,29.06,NNW,344,10.1,16.6,15,-99.99,,,-99.99,WSDL version 420,2013-05-10 17:21:00,
2013-05-10 11:26:00,76.8,25.7,29.06,North,354,10.0,17.2,15,-99.99,,,-99.99,WSDL version 420,2013-05-10 17:26:00,
2013-05-10 11:31:00,76.3,25.3,29.06,NNW,335,11.2,17.4,15,-99.99,,,-99.99,WSDL version 420,2013-05-10 17:31:00,
2013-05-10 11:36:00,75.8,24.9,29.06,NNE,15,17.2,23.0,15,-99.99,,,-99.99,WSDL version 420,2013-05-10 17:36:00,
2013-05-10 11:41:00,74.7,25.6,29.06,North,6,17.6,23.0,16,-99.99,,,-99.99,WSDL version 420,2013-05-10 17:41:00,
2013-05-10 11:46:00,75.5,25.4,29.06,North,356,12.3,22.4,15,-99.99,,,-99.99,WSDL version 420,2013-05-10 17:46:00,
2013-05-10 11:51:00,75.1,25.1,29.06,North,357,11.1,22.4,15,-99.99,,,-99.99,WSDL version 420,2013-05-10 17:51:00,
2013-05-10 11:56:00,75.5,24.6,29.06,North,360,13.2,22.4,15,-99.99,,,-99.99,WSDL version 420,2013-05-10 17:56:00,
2013-05-10 12:01:00,73.5,24.6,29.03,North,356,13.3,20.6,16,-99.99,,,-99.99,WSDL version 420,2013-05-10 18:01:00,
2013-05-10 12:06:00,75.0,25.8,29.03,North,11,13.6,20.6,16,-99.99,,,-99.99,WSDL version 420,2013-05-10 18:06:00,
2013-05-10 12:11:00,74.1,24.3,29.03,NNW,344,12.0,19.2,16,-99.99,,,-99.99,WSDL version 420,2013-05-10 18:11:00,
2013-05-10 12:16:00,71.7,24.1,29.06,NNW,335,10.2,19.2,17,-99.99,,,-99.99,WSDL version 420,2013-05-10 18:16:00,
2013-05-10 12:21:00,70.0,23.2,29.06,North,353,13.5,17.4,17,-99.99,,,-99.99,WSDL version 420,2013-05-10 18:21:00,
2013-05-10 12:26:00,72.3,23.7,29.06,North,354,7.4,17.4,16,-99.99,,,-99.99,WSDL version 420,2013-05-10 18:26:00,
2013-05-10 12:31:00,74.2,25.2,29.06,NNW,347,10.3,14.1,16,-99.99,,,-99.99,WSDL version 420,2013-05-10 18:31:00,
2013-05-10 12:36:00,73.3,24.5,29.06,NNE,17,13.3,16.8,16,-99.99,,,-99.99,WSDL version 420,2013-05-10 18:36:00,
2013-05-10 12:41:00,74.0,25.0,29.06,NE,56,10.8,16.8,16,-99.99,,,-99.99,WSDL version 420,2013-05-10 18:41:00,
2013-05-10 12:46:00,75.5,25.2,29.06,NE,53,9.3,15.7,15,-99.99,,,-99.99,WSDL version 420,2013-05-10 18:46:00,
2013-05-10 12:51:00,73.3,24.5,29.03,North,4,9.2,17.2,16,-99.99,,,-99.99,WSDL version 420,2013-05-10 18:51:00,
2013-05-10 12:56:00,73.0,24.2,29.03,North,360,8.6,19.0,16,-99.99,,,-99.99,WSDL version 420,2013-05-10 18:56:00,
2013-05-10 13:01:00,74.5,25.4,29.03,NNW,347,8.8,19.0,16,-99.99,,,-99.99,WSDL version 420,2013-05-10 19:01:00,
2013-05-10 13:06:00,73.0,24.2,29.03,NNE,19,8.4,14.5,16,-99.99,,,-99.99,WSDL version 420,2013-05-10 19:06:00,
2013-05-10 13:11:00,72.3,24.0,29.03,North,354,9.0,14.5,16,-99.99,,,-99.99,WSDL version 420,2013-05-10 19:11:00,
2013-05-10 13:16:00,74.1,25.1,29.03,NNE,23,10.6,16.8,16,0.00,,,0.00,WSDL version 420,2013-05-10 19:16:00,
2013-05-10 13:21:00,75.0,25.4,29.03,North,360,5.1,16.8,15,-99.99,,,-99.99,WSDL version 420,2013-05-10 19:21:00,
2013-05-10 13:26:00,75.4,25.1,29.03,NNE,13,9.2,14.5,16,-99.99,,,-99.99,WSDL version 420,2013-05-10 19:26:00,
2013-05-10 13:31:00,74.1,25.1,29.03,NE,41,11.6,17.7,16,-99.99,,,-99.99,WSDL version 420,2013-05-10 19:31:00,
2013-05-10 13:36:00,74.5,25.4,29.03,NNE,26,10.5,17.7,16,-99.99,,,-99.99,WSDL version 420,2013-05-10 19:36:00,
2013-05-10 13:41:00,74.0,25.0,29.03,NE,34,6.4,13.2,16,-99.99,,,-99.99,WSDL version 420,2013-05-10 19:41:00,
2013-05-10 13:46:00,75.8,24.9,29.03,North,353,6.9,10.1,15,-99.99,,,-99.99,WSDL version 420,2013-05-10 19:46:00,
2013-05-10 13:51:00,76.5,25.4,29.03,North,6,8.1,12.3,15,-99.99,,,-99.99,WSDL version 420,2013-05-10 19:51:00,
2013-05-10 13:56:00,75.6,24.7,29.03,NNE,28,7.3,12.3,15,-99.99,,,-99.99,WSDL version 420,2013-05-10 19:56:00,
2013-05-10 14:01:00,75.0,25.4,29.03,NNE,29,8.9,11.9,15,-99.99,,,-99.99,WSDL version 420,2013-05-10 20:01:00,
2013-05-10 14:06:00,74.7,25.2,29.03,North,356,7.7,13.9,16,-99.99,,,-99.99,WSDL version 420,2013-05-10 20:06:00,
2013-05-10 14:11:00,73.6,24.7,29.03,NNW,338,6.0,13.9,16,-99.99,,,-99.99,WSDL version 420,2013-05-10 20:11:00,
2013-05-10 14:16:00,73.3,24.5,29.00,NE,41,7.6,13.0,16,-99.99,,,-99.99,WSDL version 420,2013-05-10 20:16:00,
2013-05-10 14:21:00,74.6,25.5,29.00,North,360,9.2,20.8,16,-99.99,,,-99.99,WSDL version 420,2013-05-10 20:21:00,
2013-05-10 14:26:00,74.3,25.2,29.00,NNE,19,14.0,23.0,16,-99.99,,,-99.99,WSDL version 420,2013-05-10 20:26:00,
2013-05-10 14:31:00,72.5,23.8,29.03,North,6,11.9,23.0,16,-99.99,,,-99.99,WSDL version 420,2013-05-10 20:31:00,
2013-05-10 14:36:00,71.2,22.2,29.03,North,356,10.5,21.0,14,-99.99,,,-99.99,WSDL version 420,2013-05-10 20:36:00,
2013-05-10 14:41:00,70.0,19.2,29.03,North,355,15.7,21.0,15,-99.99,,,-99.99,WSDL version 420,2013-05-10 20:41:00,
2013-05-10 14:46:00,69.1,19.6,29.03,NNE,23,26.6,30.0,15,-99.99,,,-99.99,WSDL version 420,2013-05-10 20:46:00,
2013-05-10 14:51:00,67.3,20.3,29.03,NNE,14,20.7,30.0,17,-99.99,,,-99.99,WSDL version 420,2013-05-10 20:51:00,
2013-05-10 14:56:00,67.9,21.5,29.03,NNE,14,14.1,28.6,17,-99.99,,,-99.99,WSDL version 420,2013-05-10 20:56:00,
2013-05-10 15:01:00,68.2,21.7,29.03,NNE,23,14.7,25.5,17,-99.99,,,-99.99,WSDL version 420,2013-05-10 21:01:00,
2013-05-10 15:06:00,68.5,22.0,29.03,NNE,26,10.8,18.8,17,-99.99,,,-99.99,WSDL version 420,2013-05-10 21:06:00,
2013-05-10 15:11:00,68.5,22.0,29.03,North,6,11.3,16.1,17,-99.99,,,-99.99,WSDL version 420,2013-05-10 21:11:00,
2013-05-10 15:16:00,68.3,21.8,29.03,North,360,9.4,15.4,17,-99.99,,,-99.99,WSDL version 420,2013-05-10 21:16:00,
2013-05-10 15:21:00,-999.0,-99.9,29.03,NNE,19,14.3,22.8,-999,-99.99,,,-99.99,WSDL version 420,2013-05-10 21:21:00,
2013-05-10 15:26:00,69.3,22.7,29.03,North,356,10.6,22.8,17,-99.99,,,-99.99,WSDL version 420,2013-05-10 21:26:00,
2013-05-10 15:31:00,69.9,23.2,29.03,North,3,12.2,19.5,17,-99.99,,,-99.99,WSDL version 420,2013-05-10 21:31:00,
2013-05-10 15:36:00,69.5,22.8,29.03,North,3,17.5,23.0,17,-99.99,,,-99.99,WSDL version 420,2013-05-10 21:36:00,
2013-05-10 15:41:00,69.2,22.5,29.03,NNW,347,11.3,23.0,17,-99.99,,,-99.99,WSDL version 420,2013-05-10 21:41:00,
2013-05-10 15:46:00,69.7,22.9,29.06,North,3,13.7,20.6,17,-99.99,,,-99.99,WSDL version 420,2013-05-10 21:46:00,
2013-05-10 15:51:00,70.0,23.2,29.06,North,4,11.5,17.0,17,-99.99,,,-99.99,WSDL version 420,2013-05-10 21:51:00,
2013-05-10 15:56:00,69.4,22.7,29.06,North,352,15.0,19.7,17,-99.99,,,-99.99,WSDL version 420,2013-05-10 21:56:00,
2013-05-10 15:58:00,69.3,22.6,29.06,NNW,345,12.8,19.7,17,-99.99,,,-99.99,WSDL version 420,2013-05-10 21:58:00,
2013-05-10 15:59:00,69.1,22.5,29.06,NNW,343,11.3,19.7,17,0.00,,,0.00,WSDL version 420,2013-05-10 21:59:00,
2013-05-10 16:03:00,-999.0,-99.9,29.03,North,350,11.1,19.5,-999,0.00,,,0.00,WSDL version 420,2013-05-10 22:03:00,
2013-05-10 16:08:00,69.7,23.0,29.03,NNW,338,9.1,17.4,17,-99.99,,,-99.99,WSDL version 420,2013-05-10 22:08:00,
2013-05-10 16:09:00,69.9,23.1,29.03,NNW,341,9.4,17.4,17,-99.99,,,-99.99,WSDL version 420,2013-05-10 22:09:00,
2013-05-10 16:10:00,69.9,23.1,29.03,NNW,338,8.9,17.4,17,-99.99,,,-99.99,WSDL version 420,2013-05-10 22:10:00,
2013-05-10 16:15:00,70.0,23.2,29.03,North,360,11.6,14.8,17,-99.99,,,-99.99,WSDL version 420,2013-05-10 22:15:00,
2013-05-10 16:20:00,69.6,22.9,29.03,North,6,13.0,19.7,17,0.00,,,0.00,WSDL version 420,2013-05-10 22:20:00,
2013-05-10 16:25:00,68.3,21.9,29.03,North,360,16.2,22.1,17,-99.99,,,-99.99,WSDL version 420,2013-05-10 22:25:00,
2013-05-10 16:30:00,66.9,20.7,29.03,NNE,15,16.9,22.8,17,0.00,,,0.00,WSDL version 420,2013-05-10 22:30:00,
2013-05-10 16:35:00,66.1,19.7,29.06,NNE,23,16.0,22.8,15,0.00,,,0.00,WSDL version 420,2013-05-10 22:35:00,
2013-05-10 16:40:00,65.8,21.1,29.06,NNE,15,18.6,25.3,18,0.00,,,0.00,WSDL version 420,2013-05-10 22:40:00,
2013-05-10 16:45:00,66.6,20.9,29.06,NNW,341,14.4,25.3,17,-99.99,,,-99.99,WSDL version 420,2013-05-10 22:45:00,
2013-05-10 16:50:00,66.6,20.5,29.06,North,8,19.9,25.9,17,0.00,,,0.00,WSDL version 420,2013-05-10 22:50:00,
2013-05-10 16:55:00,66.7,20.5,29.06,North,356,16.8,25.9,17,0.00,,,0.00,WSDL version 420,2013-05-10 22:55:00,
2013-05-10 17:00:00,66.0,20.5,29.06,North,352,16.6,24.6,18,-99.99,,,-99.99,WSDL version 420,2013-05-10 23:00:00,
2013-05-10 17:05:00,64.8,20.3,29.06,North,354,15.1,24.6,18,-99.99,,,-99.99,WSDL version 420,2013-05-10 23:05:00,
2013-05-10 17:10:00,63.4,19.2,29.06,North,8,13.9,19.7,18,-99.99,,,-99.99,WSDL version 420,2013-05-10 23:10:00,
2013-05-10 17:15:00,61.9,23.7,29.06,North,349,13.3,19.7,24,0.00,,,0.00,WSDL version 420,2013-05-10 23:15:00,
2013-05-10 17:20:00,61.2,24.2,29.06,North,8,13.5,17.4,24,0.00,,,0.00,WSDL version 420,2013-05-10 23:20:00,
2013-05-10 17:25:00,61.1,25.1,29.06,North,356,11.2,17.4,25,-99.99,,,-99.99,WSDL version 420,2013-05-10 23:25:00,
2013-05-10 17:30:00,60.6,24.6,29.06,NNE,32,11.9,15.4,25,-99.99,,,-99.99,WSDL version 420,2013-05-10 23:30:00,
2013-05-10 17:36:00,60.2,25.1,29.06,NE,53,9.1,15.4,26,-99.99,,,-99.99,WSDL version 420,2013-05-10 23:36:00,
2013-05-10 17:41:00,60.1,26.1,29.06,NE,55,8.9,13.6,27,-99.99,,,-99.99,WSDL version 420,2013-05-10 23:41:00,
2013-05-10 17:46:00,59.8,27.1,29.09,NE,41,9.1,13.6,29,0.00,,,0.00,WSDL version 420,2013-05-10 23:46:00,
2013-05-10 17:51:00,60.0,27.7,29.09,NE,55,7.0,10.3,29,-99.99,,,-99.99,WSDL version 420,2013-05-10 23:51:00,
2013-05-10 17:56:00,60.7,28.6,29.09,ENE,58,7.1,9.8,29,-99.99,,,-99.99,WSDL version 420,2013-05-10 23:56:00,
2013-05-10 18:01:00,61.3,28.8,29.09,ENE,62,9.9,13.0,29,-99.99,,,-99.99,WSDL version 420,2013-05-11 00:01:00,
2013-05-10 18:06:00,61.2,29.1,29.09,NE,55,9.6,13.0,29,-99.99,,,-99.99,WSDL version 420,2013-05-11 00:06:00,
2013-05-10 18:11:00,61.3,28.3,29.09,NNE,23,11.4,15.2,28,-99.99,,,-99.99,WSDL version 420,2013-05-11 00:11:00,
2013-05-10 18:16:00,60.9,26.9,29.09,NE,39,11.1,17.4,27,-99.99,,,-99.99,WSDL version 420,2013-05-11 00:16:00,
2013-05-10 18:21:00,60.6,27.2,29.09,NNE,25,10.5,17.4,28,-99.99,,,-99.99,WSDL version 420,2013-05-11 00:21:00,
2013-05-10 18:26:00,60.1,26.9,29.09,NNE,23,13.6,18.6,28,-99.99,,,-99.99,WSDL version 420,2013-05-11 00:26:00,
2013-05-10 18:31:00,59.8,26.6,29.09,NNE,23,12.2,18.6,28,-99.99,,,-99.99,WSDL version 420,2013-05-11 00:31:00,
2013-05-10 18:36:00,59.7,26.3,29.09,NNE,23,11.9,17.7,27,-99.99,,,-99.99,WSDL version 420,2013-05-11 00:36:00,
2013-05-10 18:41:00,59.4,24.7,29.09,NNE,17,15.5,20.8,26,-99.99,,,-99.99,WSDL version 420,2013-05-11 00:41:00,
2013-05-10 18:46:00,59.2,23.4,29.09,NNE,27,10.6,20.8,25,-99.99,,,-99.99,WSDL version 420,2013-05-11 00:46:00,
2013-05-10 18:51:00,59.1,23.3,29.09,NNE,30,11.3,19.5,25,-99.99,,,-99.99,WSDL version 420,2013-05-11 00:51:00,
2013-05-10 18:56:00,58.8,23.1,29.09,North,4,13.6,17.9,25,-99.99,,,-99.99,WSDL version 420,2013-05-11 00:56:00,
2013-05-10 19:01:00,58.6,22.9,29.09,NNE,23,12.2,19.7,25,-99.99,,,-99.99,WSDL version 420,2013-05-11 01:01:00,
2013-05-10 19:06:00,58.5,22.5,29.09,NNE,15,12.8,19.7,24,0.00,,,0.00,WSDL version 420,2013-05-11 01:06:00,
2013-05-10 19:11:00,58.4,21.7,29.09,NE,34,11.5,17.2,24,-99.99,,,-99.99,WSDL version 420,2013-05-11 01:11:00,
2013-05-10 19:16:00,58.0,21.4,29.09,NNE,31,10.7,15.4,24,0.00,,,0.00,WSDL version 420,2013-05-11 01:16:00,
2013-05-10 19:21:00,57.7,21.2,29.09,NNE,19,9.7,15.2,24,0.00,,,0.00,WSDL version 420,2013-05-11 01:21:00,
2013-05-10 19:26:00,57.3,20.9,29.09,NNE,17,7.5,15.2,24,-99.99,,,-99.99,WSDL version 420,2013-05-11 01:26:00,
2013-05-10 19:31:00,57.2,20.8,29.09,NNE,23,11.6,16.1,24,-99.99,,,-99.99,WSDL version 420,2013-05-11 01:31:00,
2013-05-10 19:36:00,56.9,21.5,29.09,NE,34,8.4,16.1,25,-99.99,,,-99.99,WSDL version 420,2013-05-11 01:36:00,
2013-05-10 19:41:00,56.8,21.4,29.09,NNE,29,8.5,12.8,25,-99.99,,,-99.99,WSDL version 420,2013-05-11 01:41:00,
2013-05-10 19:47:00,56.7,21.3,29.09,NNE,17,10.0,14.5,25,-99.99,,,-99.99,WSDL version 420,2013-05-11 01:47:00,
2013-05-10 19:52:00,56.6,21.2,29.09,NE,37,8.9,14.5,25,0.00,,,0.00,WSDL version 420,2013-05-11 01:52:00,
2013-05-10 19:57:00,56.3,21.0,29.09,NNE,26,10.1,19.0,25,0.00,,,0.00,WSDL version 420,2013-05-11 01:57:00,
2013-05-10 20:02:00,56.1,20.8,29.12,NNE,26,12.6,19.0,25,-99.99,,,-99.99,WSDL version 420,2013-05-11 02:02:00,
2013-05-10 20:07:00,55.7,20.4,29.12,NNE,20,13.3,17.4,25,-99.99,,,-99.99,WSDL version 420,2013-05-11 02:07:00,
2013-05-10 20:12:00,55.3,20.7,29.12,NNE,15,10.7,14.8,26,-99.99,,,-99.99,WSDL version 420,2013-05-11 02:12:00,
2013-05-10 20:17:00,54.7,20.5,29.15,NNE,16,11.1,15.2,26,0.00,,,0.00,WSDL version 420,2013-05-11 02:17:00,
2013-05-10 20:22:00,54.3,20.1,29.15,NE,34,11.6,16.6,26,-99.99,,,-99.99,WSDL version 420,2013-05-11 02:22:00,
2013-05-10 20:27:00,53.8,19.8,29.15,NNE,28,10.8,16.6,26,-99.99,,,-99.99,WSDL version 420,2013-05-11 02:27:00,
2013-05-10 20:32:00,53.2,20.1,29.15,North,8,10.1,16.8,27,0.00,,,0.00,WSDL version 420,2013-05-11 02:32:00,
2013-05-10 20:37:00,52.6,19.6,29.15,NNE,19,10.7,16.8,27,-99.99,,,-99.99,WSDL version 420,2013-05-11 02:37:00,
2013-05-10 20:42:00,52.2,18.3,29.15,NE,34,12.0,19.0,26,-99.99,,,-99.99,WSDL version 420,2013-05-11 02:42:00,
2013-05-10 20:47:00,51.7,18.5,29.15,NNE,26,11.0,19.0,27,-99.99,,,-99.99,WSDL version 420,2013-05-11 02:47:00,
2013-05-10 20:52:00,51.4,18.5,29.15,NE,35,10.8,13.6,27,-99.99,,,-99.99,WSDL version 420,2013-05-11 02:52:00,
2013-05-10 20:57:00,51.3,18.4,29.15,NNE,23,9.9,18.6,27,0.00,,,0.00,WSDL version 420,2013-05-11 02:57:00,
2013-05-10 21:02:00,51.0,18.2,29.12,NNE,19,10.5,18.6,27,0.00,,,0.00,WSDL version 420,2013-05-11 03:02:00,
2013-05-10 21:07:00,50.8,18.1,29.12,NNE,26,9.9,14.8,27,-99.99,,,-99.99,WSDL version 420,2013-05-11 03:07:00,
2013-05-10 21:12:00,50.5,17.8,29.12,NE,34,8.6,13.6,27,-99.99,,,-99.99,WSDL version 420,2013-05-11 03:12:00,
2013-05-10 21:17:00,50.4,17.7,29.15,NNE,23,9.1,13.0,27,0.00,,,0.00,WSDL version 420,2013-05-11 03:17:00,
2013-05-10 21:22:00,50.2,17.5,29.15,NE,39,6.4,10.5,27,-99.99,,,-99.99,WSDL version 420,2013-05-11 03:22:00,
2013-05-10 21:27:00,50.0,17.3,29.15,NNE,19,4.3,8.7,27,0.00,,,0.00,WSDL version 420,2013-05-11 03:27:00,
2013-05-10 21:32:00,49.7,17.5,29.15,NNE,26,4.8,8.1,28,0.00,,,0.00,WSDL version 420,2013-05-11 03:32:00,
2013-05-10 21:37:00,49.5,17.8,29.15,NNE,25,4.6,8.1,28,-99.99,,,-99.99,WSDL version 420,2013-05-11 03:37:00,
2013-05-10 21:42:00,49.3,17.6,29.15,NNE,28,5.8,7.4,28,-99.99,,,-99.99,WSDL version 420,2013-05-11 03:42:00,
2013-05-10 21:47:00,49.3,17.6,29.15,NNE,14,5.1,8.7,28,-99.99,,,-99.99,WSDL version 420,2013-05-11 03:47:00,
2013-05-10 21:52:00,49.3,17.6,29.15,NNE,32,5.6,8.7,28,-99.99,,,-99.99,WSDL version 420,2013-05-11 03:52:00,
2013-05-10 21:57:00,49.5,17.7,29.15,NNE,23,7.3,10.5,28,-99.99,,,-99.99,WSDL version 420,2013-05-11 03:57:00,
2013-05-10 22:01:00,49.6,17.3,29.18,NNE,19,7.1,10.5,27,0.00,,,0.00,WSDL version 420,2013-05-11 04:01:00,
2013-05-10 22:03:00,49.8,17.1,29.18,NNE,31,7.5,10.5,27,0.00,,,0.00,WSDL version 420,2013-05-11 04:03:00,
2013-05-10 22:05:00,49.8,17.2,29.18,NNE,26,8.4,12.5,27,-99.99,,,-99.99,WSDL version 420,2013-05-11 04:05:00,
2013-05-10 22:07:00,49.9,17.3,29.18,NNE,25,7.2,12.5,27,-99.99,,,-99.99,WSDL version 420,2013-05-11 04:07:00,
2013-05-10 22:09:00,50.0,17.3,29.18,NNE,26,7.7,12.5,27,-99.99,,,-99.99,WSDL version 420,2013-05-11 04:09:00,
2013-05-10 22:14:00,50.0,16.5,29.18,NE,43,8.7,10.3,26,0.00,,,0.00,WSDL version 420,2013-05-11 04:14:00,
2013-05-10 22:19:00,50.0,16.7,29.18,NNE,32,6.4,10.3,27,0.00,,,0.00,WSDL version 420,2013-05-11 04:19:00,
2013-05-10 22:24:00,49.8,17.2,29.18,NE,42,6.9,8.7,27,-99.99,,,-99.99,WSDL version 420,2013-05-11 04:24:00,
2013-05-10 22:29:00,49.7,17.1,29.18,NE,51,6.8,8.7,27,-99.99,,,-99.99,WSDL version 420,2013-05-11 04:29:00,
2013-05-10 22:34:00,49.6,16.9,29.18,NNE,23,9.5,11.9,27,0.00,,,0.00,WSDL version 420,2013-05-11 04:34:00,
2013-05-10 22:39:00,49.6,16.1,29.18,NNE,16,7.3,11.9,26,0.00,,,0.00,WSDL version 420,2013-05-11 04:39:00,
2013-05-10 22:44:00,49.6,16.1,29.18,North,3,7.3,15.4,26,0.00,,,0.00,WSDL version 420,2013-05-11 04:44:00,
2013-05-10 22:49:00,49.3,15.9,29.18,NNE,16,9.0,15.4,26,-99.99,,,-99.99,WSDL version 420,2013-05-11 04:49:00,
2013-05-10 22:54:00,49.2,14.0,29.18,NNE,16,8.4,12.8,24,0.00,,,0.00,WSDL version 420,2013-05-11 04:54:00,
2013-05-10 22:59:00,48.9,13.7,29.18,North,10,6.6,12.3,24,-99.99,,,-99.99,WSDL version 420,2013-05-11 04:59:00,
2013-05-10 23:04:00,48.8,13.7,29.18,NNE,23,6.4,12.3,24,0.00,,,0.00,WSDL version 420,2013-05-11 05:04:00,
2013-05-10 23:09:00,48.6,13.5,29.18,NE,36,5.3,10.1,24,-99.99,,,-99.99,WSDL version 420,2013-05-11 05:09:00,
2013-05-10 23:14:00,48.3,13.2,29.18,NNE,23,4.8,8.5,24,-99.99,,,-99.99,WSDL version 420,2013-05-11 05:14:00,
2013-05-10 23:19:00,48.2,13.1,29.18,NE,34,5.0,8.5,24,-99.99,,,-99.99,WSDL version 420,2013-05-11 05:19:00,
2013-05-10 23:24:00,48.2,13.1,29.18,NNE,17,5.1,8.5,24,0.00,,,0.00,WSDL version 420,2013-05-11 05:24:00,
2013-05-10 23:29:00,48.2,13.1,29.18,NNE,32,4.9,7.6,24,-99.99,,,-99.99,WSDL version 420,2013-05-11 05:29:00,
2013-05-10 23:34:00,48.0,12.9,29.18,NNE,14,5.8,7.4,24,-99.99,,,-99.99,WSDL version 420,2013-05-11 05:34:00,
2013-05-10 23:39:00,48.0,12.9,29.18,NNE,14,4.5,6.3,24,-99.99,,,-99.99,WSDL version 420,2013-05-11 05:39:00,
2013-05-10 23:44:00,47.8,14.5,29.18,NNE,20,4.1,6.3,27,0.00,,,0.00,WSDL version 420,2013-05-11 05:44:00,
2013-05-10 23:49:00,47.6,14.6,29.18,North,10,4.3,6.0,27,0.00,,,0.00,WSDL version 420,2013-05-11 05:49:00,
2013-05-10 23:54:00,47.2,14.9,29.18,North,353,4.5,7.4,27,0.00,,,0.00,WSDL version 420,2013-05-11 05:54:00,
2013-05-10 23:59:00,46.7,14.5,29.18,NNW,346,4.4,7.4,27,0.00,,,0.00,WSDL version 420,2013-05-11 05:59:00,